Home > Weather > Huntington Beach > Past weeks

Flag for U.S.A. Weather for the Past 2 Weeks in Huntington Beach, California, U.S.A.

Now
88 °F

Sunny.


Feels Like: 84 °F
Forecast: 56 / 82 °F
Wind: 3 mph from North

Location: John Wayne Airport-Orange County Airport

Current Time: Feb 9, 2016 at 1:45:52 PM

Latest Report: Feb 9, 2016 at 12:53 PM


Visibility: 10 mi

Pressure: 30.06 "Hg

Humidity: 11%

Dew point: 27 °F

Location of Huntington BeachLocation

Historic Weather in Huntington Beach — Graph

°F

Huntington Beach Temperature Yesterday

Maximum temperature yesterday: 86 °F (at 1:53 PM)
Minimum temperature yesterday: 61 °F (at 11:53 PM)
Average temperature yesterday: 76 °F

High & Low Weather Summary for the Past Weeks

 TemperatureHumidityPressure
High86 °F (Feb 7, 2:53 PM)100% (Jan 31, 9:00 AM)30.36 "Hg (Jan 31, 9:00 AM)
Low37 °F (Feb 2, 4:53 AM)9% (Feb 7, 3:53 PM)29.64 "Hg (Jan 31, 1:53 PM)
Average59 °F48%30.13 "Hg
* Reported Jan 25 11:53 AM — Feb 9 11:53 AM, Huntington Beach, Weather by CustomWeather, © 2016

Note: Actual official high and low records may vary slightly from our data, if they occured in-between our weather recording intervals... More about our weather records

Advertising

Huntington Beach Weather History for the Previous 24 Hours

 ConditionsComfort  
Time TempWeatherWind HumidityBarometerVisibility
11:53 AM
Tue, Feb 9
84 °FSunny.No wind17%30.10 "Hg10 mi
10:53 AM80 °FSunny.No wind17%30.14 "Hg10 mi
9:53 AM74 °FSunny.3 mph28%30.15 "Hg10 mi
8:53 AM68 °FSunny.No wind31%30.14 "Hg10 mi
7:53 AM60 °FSunny.No wind44%30.13 "Hg10 mi
6:53 AM54 °FSunny.No wind49%30.12 "Hg10 mi
5:53 AM54 °FPassing clouds.No wind47%30.10 "Hg10 mi
4:53 AM55 °FClear.No wind45%30.10 "Hg10 mi
3:53 AM56 °FClear.No wind44%30.09 "Hg10 mi
2:53 AM57 °FClear.No wind42%30.10 "Hg10 mi
1:53 AM59 °FClear.3 mph38%30.09 "Hg10 mi
12:53 AM62 °FClear.No wind32%30.10 "Hg10 mi
11:53 PM
Mon, Feb 8
61 °FClear.No wind36%30.10 "Hg10 mi
10:53 PM65 °FClear.No wind29%30.11 "Hg10 mi
9:53 PM66 °FClear.6 mph27%30.11 "Hg10 mi
8:53 PM67 °FPassing clouds.5 mph25%30.09 "Hg10 mi
7:53 PM79 °FClear.No wind12%30.08 "Hg10 mi
6:53 PM78 °FClear.6 mph13%30.07 "Hg10 mi
5:53 PM79 °FClear.3 mph19%30.06 "Hg10 mi
4:53 PM83 °FSunny.3 mph15%30.06 "Hg10 mi
3:53 PM83 °FSunny.7 mph15%30.05 "Hg10 mi
2:53 PM86 °FSunny.5 mph13%30.05 "Hg10 mi
1:53 PM86 °FSunny.No wind12%30.06 "Hg10 mi
Weather by CustomWeather, © 2016

See weather overviewHow to use our weather pages